Total_Precipitation_Accumulation
0.02 0.06 0.18 0.43 1.22 1.61 1.43 0.74 0.52 0.40 0.37 0.46 0.46 0.41 0.49 0.62 0.81 1.22 0.65 0.22 0.07 0.04 0.07 0.14 0.18 0.15 0.15 0.17 0.18 0.20 0.21 0.20 0.18 0.16 0.15 0.12 0.11 0.12 0.15 0.18 0.20 0.23 0.26 0.23 0.19 0.19 0.19 0.17 0.16
0.02 0.08 0.23 0.64 1.50 2.01 1.49 0.71 0.44 0.31 0.38 0.52 0.60 0.56 0.46 0.48 0.35 0.26 0.28 0.37 0.11 0.03 0.04 0.07 0.14 0.15 0.14 0.14 0.17 0.19 0.20 0.19 0.17 0.16 0.16 0.16 0.17 0.19 0.23 0.23 0.22 0.24 0.23 0.21 0.19 0.16 0.17 0.15 0.15
0.04 0.11 0.30 0.73 1.13 1.31 1.08 0.58 0.34 0.32 0.38 0.55 0.61 0.47 0.40 0.49 0.34 0.21 0.19 0.24 0.13 0.08 0.06 0.08 0.12 0.14 0.14 0.14 0.16 0.18 0.18 0.18 0.18 0.18 0.19 0.20 0.21 0.23 0.25 0.25 0.26 0.25 0.23 0.21 0.20 0.17 0.14 0.15 0.17
0.05 0.14 0.36 0.56 0.58 0.52 0.45 0.36 0.31 0.33 0.41 0.44 0.52 0.51 0.37 0.39 0.32 0.23 0.22 0.21 0.16 0.12 0.10 0.14 0.16 0.15 0.15 0.15 0.15 0.16 0.17 0.17 0.18 0.18 0.21 0.22 0.22 0.25 0.30 0.29 0.28 0.26 0.24 0.19 0.18 0.18 0.15 0.15 0.18
0.06 0.20 0.42 0.45 0.33 0.34 0.35 0.34 0.35 0.39 0.44 0.54 0.66 0.69 0.61 0.40 0.32 0.41 0.47 0.40 0.29 0.21 0.19 0.21 0.24 0.22 0.19 0.17 0.17 0.18 0.17 0.18 0.19 0.22 0.23 0.23 0.24 0.28 0.30 0.29 0.26 0.25 0.23 0.18 0.18 0.21 0.20 0.23 0.27
0.07 0.20 0.26 0.27 0.24 0.27 0.34 0.35 0.35 0.40 0.51 0.73 0.75 0.70 0.67 0.53 0.46 0.54 0.57 0.66 0.62 0.36 0.29 0.27 0.32 0.31 0.26 0.23 0.23 0.22 0.21 0.22 0.22 0.21 0.22 0.23 0.25 0.28 0.26 0.27 0.28 0.27 0.24 0.22 0.20 0.21 0.25 0.31 0.34
0.11 0.22 0.17 0.19 0.17 0.20 0.23 0.32 0.43 0.46 0.56 0.73 0.64 0.61 0.77 0.80 0.67 0.63 0.61 0.66 0.61 0.44 0.42 0.37 0.32 0.30 0.30 0.32 0.34 0.32 0.27 0.28 0.27 0.23 0.23 0.23 0.26 0.28 0.27 0.28 0.32 0.30 0.27 0.28 0.28 0.23 0.24 0.27 0.32
0.07 0.11 0.09 0.13 0.13 0.17 0.16 0.22 0.37 0.52 0.57 0.56 0.59 0.76 1.08 0.97 0.64 0.62 0.66 0.65 0.63 0.60 0.57 0.56 0.48 0.42 0.36 0.34 0.38 0.39 0.35 0.35 0.31 0.29 0.28 0.32 0.36 0.36 0.36 0.32 0.38 0.38 0.35 0.36 0.37 0.33 0.32 0.36 0.41
0.03 0.06 0.07 0.08 0.09 0.14 0.16 0.21 0.31 0.45 0.49 0.56 0.74 0.80 0.86 0.71 0.56 0.71 0.84 0.88 0.95 0.86 0.77 0.68 0.59 0.52 0.46 0.36 0.34 0.40 0.41 0.41 0.37 0.41 0.40 0.46 0.60 0.68 0.70 0.65 0.71 0.68 0.64 0.63 0.62 0.62 0.58 0.52 0.47
0.03 0.05 0.06 0.04 0.06 0.11 0.13 0.22 0.37 0.50 0.60 0.84 1.17 1.21 0.92 0.76 0.71 0.81 1.05 1.12 1.36 1.14 0.86 0.78 0.61 0.55 0.45 0.37 0.47 0.56 0.57 0.59 0.57 0.72 0.75 0.91 1.11 1.12 0.89 1.06 1.18 1.13 1.15 1.04 1.01 1.20 1.01 0.78 0.71
0.01 0.02 0.01 0.02 0.03 0.04 0.10 0.17 0.26 0.43 0.79 1.27 1.36 1.19 0.94 1.01 1.02 1.03 1.33 1.40 1.33 1.18 1.16 1.08 0.87 0.75 0.69 0.73 0.67 0.74 0.84 0.97 0.94 0.96 1.08 1.34 1.27 1.11 1.00 1.10 1.43 1.57 1.63 1.54 1.59 1.70 1.37 1.34 1.54
0.00 0.01 0.01 0.02 0.03 0.04 0.05 0.08 0.18 0.40 0.89 1.05 1.02 0.95 0.91 1.10 1.14 1.22 1.53 1.60 1.61 1.49 1.73 1.79 1.45 1.35 1.22 1.05 0.95 0.87 0.88 1.06 1.20 1.38 1.43 1.59 1.66 1.56 1.40 1.42 1.60 1.77 1.90 2.24 2.19 2.09 1.95 1.90 1.83
0.00 0.00 0.01 0.01 0.03 0.07 0.05 0.09 0.26 0.59 0.80 0.70 0.59 0.82 0.89 1.21 1.50 1.68 1.87 1.77 2.01 2.09 2.31 2.48 2.04 1.91 1.78 1.73 1.56 1.28 1.33 1.44 1.52 1.70 1.82 1.93 2.09 2.09 2.03 1.93 1.86 1.72 1.85 2.19 2.41 2.29 2.34 2.26 2.11
0.00 0.00 0.01 0.02 0.03 0.05 0.08 0.16 0.37 0.65 0.59 0.56 0.71 1.11 1.32 1.28 1.56 1.94 2.07 2.15 2.46 2.62 2.72 2.84 2.70 2.69 2.51 2.26 2.21 2.09 1.80 1.76 1.77 1.82 1.80 2.00 2.22 2.48 2.58 2.47 2.31 1.99 1.90 2.00 2.30 2.41 2.57 2.48 2.35
0.00 0.01 0.04 0.06 0.07 0.06 0.10 0.34 0.52 0.66 0.55 0.58 0.83 1.17 1.51 1.44 1.58 1.86 2.06 2.52 3.21 3.52 3.38 3.39 3.37 3.58 3.36 2.93 2.62 2.33 2.16 2.11 2.17 2.17 2.07 2.20 2.41 2.62 2.63 2.42 2.08 1.87 1.90 2.01 1.96 2.01 2.31 2.13 2.01
0.01 0.05 0.14 0.16 0.11 0.10 0.17 0.58 0.72 0.69 0.83 0.90 1.09 1.26 1.53 1.56 1.59 1.81 2.28 3.03 3.86 4.36 4.23 4.01 3.62 3.89 3.83 3.47 3.18 2.86 2.60 2.62 2.51 2.25 2.16 2.13 2.29 2.25 2.30 1.95 1.58 1.66 1.85 1.91 1.95 1.91 2.02 2.03 2.10
0.03 0.07 0.14 0.22 0.16 0.13 0.23 0.82 0.86 0.65 0.91 1.17 1.09 1.24 1.45 1.61 1.74 1.87 2.43 3.24 4.05 4.77 4.94 4.87 4.74 4.39 4.07 3.86 3.68 3.47 3.26 2.91 2.50 2.28 2.17 1.97 1.77 1.70 1.81 1.59 1.47 1.52 1.67 1.75 1.66 1.86 2.01 1.96 2.02
0.06 0.09 0.15 0.22 0.18 0.16 0.29 0.62 0.72 0.74 0.91 1.06 1.06 1.09 1.19 1.44 1.83 1.97 2.29 3.00 3.89 4.73 5.24 5.38 5.35 4.93 4.39 3.90 3.47 3.34 3.15 2.87 2.59 2.32 2.08 1.76 1.54 1.45 1.62 1.51 1.41 1.47 1.59 1.64 1.76 1.91 1.98 1.78 1.74
0.06 0.09 0.18 0.24 0.17 0.19 0.34 0.52 0.66 0.77 1.00 1.14 1.16 1.10 1.12 1.42 1.84 2.08 2.38 2.84 3.60 4.32 4.98 5.06 5.22 4.66 4.00 3.40 2.95 2.80 2.55 2.26 2.22 2.10 1.93 1.76 1.56 1.48 1.60 1.44 1.37 1.32 1.39 1.40 1.51 1.63 1.65 1.41 1.59
0.09 0.12 0.20 0.22 0.15 0.17 0.34 0.61 0.79 0.88 0.87 0.94 0.97 1.01 1.10 1.48 1.94 2.32 2.85 3.21 3.21 3.71 4.40 4.44 4.07 3.76 3.28 2.83 2.60 2.41 2.30 2.03 1.84 1.70 1.60 1.41 1.30 1.30 1.31 1.30 1.18 1.15 1.23 1.22 1.30 1.42 1.42 1.26 1.47
0.12 0.14 0.18 0.16 0.15 0.22 0.40 0.75 1.03 0.98 0.74 0.68 0.73 0.79 0.94 1.28 1.80 2.25 2.66 3.06 3.02 3.37 3.47 3.06 2.81 2.78 2.69 2.46 2.32 2.20 2.12 1.94 1.62 1.34 1.21 1.13 1.06 1.04 1.00 0.99 1.02 1.08 1.01 1.07 1.16 1.30 1.45 1.33 1.24
0.08 0.08 0.07 0.07 0.13 0.28 0.42 0.94 1.32 1.12 0.84 0.71 0.72 0.84 0.91 1.01 1.20 1.52 1.86 2.29 2.47 2.52 2.43 2.32 2.24 2.19 2.35 2.32 2.08 1.87 1.52 1.37 1.23 1.09 1.09 1.09 0.98 0.92 0.87 0.87 0.98 1.04 1.02 1.11 0.98 1.03 1.23 1.34 1.19
0.05 0.04 0.05 0.08 0.13 0.27 0.47 0.79 1.18 1.17 1.12 0.97 0.85 0.88 0.81 0.76 0.83 1.04 1.17 1.38 1.65 1.86 1.89 1.82 2.03 2.08 2.07 2.02 1.95 1.89 1.61 1.37 1.26 1.25 1.32 1.23 1.09 0.94 0.85 0.85 0.88 0.97 1.01 1.06 1.04 1.07 1.04 1.09 1.07
0.04 0.05 0.12 0.25 0.37 0.69 0.68 0.73 1.07 1.02 0.98 0.96 0.80 0.68 0.64 0.60 0.65 0.84 0.91 0.96 1.07 1.20 1.29 1.36 1.58 1.77 1.80 1.76 1.74 1.74 1.66 1.50 1.28 1.18 1.18 1.13 1.07 0.97 0.86 0.85 0.92 0.92 0.89 0.91 0.96 0.98 0.96 1.00 1.02
0.05 0.09 0.32 0.69 1.00 1.17 0.72 0.70 0.89 0.78 0.80 0.86 0.66 0.44 0.40 0.46 0.48 0.58 0.65 0.73 0.79 0.81 0.88 1.00 1.19 1.35 1.47 1.53 1.53 1.56 1.67 1.53 1.28 1.07 1.07 1.01 0.91 0.87 0.85 0.82 0.94 1.02 1.00 0.95 0.95 0.98 1.00 1.05 1.07
0.06 0.07 0.19 0.34 0.49 0.70 0.74 1.09 1.02 0.65 0.62 0.53 0.36 0.25 0.24 0.37 0.39 0.39 0.42 0.46 0.57 0.59 0.66 0.77 0.84 0.94 1.07 1.27 1.42 1.36 1.42 1.28 1.13 1.17 1.09 0.94 0.78 0.83 1.00 1.05 1.03 1.05 1.07 1.02 1.12 1.09 1.10 1.15 1.13
0.05 0.05 0.06 0.10 0.16 0.44 0.82 1.17 0.96 0.55 0.51 0.37 0.25 0.19 0.23 0.28 0.35 0.34 0.31 0.30 0.35 0.38 0.44 0.54 0.69 0.84 0.91 1.01 1.20 1.29 1.22 1.15 1.16 1.21 1.15 1.01 0.92 0.86 0.97 1.04 1.09 1.06 1.03 1.06 1.19 1.18 1.22 1.29 1.25
0.06 0.06 0.06 0.07 0.15 0.33 0.69 1.05 1.09 0.81 0.58 0.36 0.27 0.27 0.34 0.31 0.38 0.41 0.31 0.25 0.29 0.31 0.35 0.48 0.62 0.81 0.97 0.98 0.96 1.00 1.15 1.17 1.23 1.22 1.05 0.97 0.96 0.93 0.93 0.92 0.99 1.02 1.01 1.07 1.25 1.27 1.33 1.48 1.47
0.08 0.08 0.09 0.10 0.12 0.21 0.52 0.76 0.66 0.63 0.46 0.34 0.37 0.44 0.32 0.28 0.33 0.36 0.29 0.24 0.30 0.33 0.39 0.49 0.60 0.84 1.02 0.93 0.92 1.00 1.10 1.15 1.17 1.31 1.25 1.11 1.05 1.00 0.95 0.91 0.91 0.94 0.92 0.98 1.13 1.27 1.41 1.52 1.52
0.10 0.10 0.11 0.14 0.16 0.17 0.27 0.48 0.40 0.46 0.42 0.49 0.56 0.52 0.40 0.36 0.32 0.36 0.34 0.36 0.38 0.43 0.47 0.55 0.63 0.78 0.89 0.90 0.95 1.01 1.06 1.09 1.07 1.11 1.17 1.19 1.09 1.02 1.00 1.00 0.97 0.89 0.86 0.94 1.08 1.22 1.38 1.50 1.58